Tracking 33188 objects as of 10-Feb-2026
HD Live streaming from Space Station
objects crossing your sky now

NOAA 17 DEB

Track NOAA 17 DEB now!
10-day predictions


NORAD ID: 48729
Int'l Code: 2002-032BP
Perigee: 675.1 km
Apogee: 689.4 km
Inclination: 98.5 °
Period: 98.3 minutes
Semi major axis: 7053 km
RCS: Unknown
Launch date: June 24, 2002
Source: United States (US)
Launch site: AIR FORCE WESTERN TEST RANGE (AFWTR)

Note: This is SATELLITE DEBRIS
Your satellite tracking list
Your tracking list is empty




NASA's NSSDC Master Catalog

Two Line Element Set (TLE):
1 48729U 02032BN  26040.09140217  .00014981  00000-0  27600-2 0  9993
2 48729  98.4736 348.8908 0010136 315.2992  44.7393 14.65610884255422
Source of the keplerian elements: AFSPC